Location: Newark
(33.6439°N, 114.9881°W)
Time: 01:15:14
(UTC+00:00)

A-11 Canister half - Pass Details

Date: 01 September 2019
Orbit: 1527 x 1682 km, 47.3° (Epoch: 19 September)

Event Time Altitude Azimuth Distance (km) Brightness Sun altitude
Rises 19:02:05 0° 280° (W) 4,826 11.5 63.1°
Reaches altitude 10° 19:05:33 10° 288° (WNW) 3,863 11.1 63.3°
Maximum altitude 19:14:35 38° 354° (N) 2,360 10.2 63.9°
Drops below altitude 10° 19:23:49 10° 60° (ENE) 3,942 11.2 64.2°
Sets 19:27:23 0° 68° (ENE) 4,935 11.6 64.4°
